Regional Weather Roundup
Issued by NWS

Home | Current Version | Previous Version | Graphics & Text | Print | Product List | Glossary On
Versions: 1 2 3 4 5 6 7 8 9 10 11 12 13 14 15 16 17 18 19 20 21 22 23 24 25 26 27 28 29 30 31 32 33 34 35 36 37 38 39 40 41 42 43 44 45 46 47 48 49 50
000
ASUS43 KMPX 251710
RWRMN
WEATHER ROUNDUP FOR MINNESOTA
NATIONAL WEATHER SERVICE TWIN CITIES/CHANHASSEN MN
1200 PM CDT WED MAY 25 2016


NOTE: "FAIR" INDICATES FEW OR NO CLOUDS BELOW 12,000 FEET WITH NO
SIGNIFICANT WEATHER AND/OR OBSTRUCTIONS TO VISIBILITY. N/A MEANS
CURRENT SKY AND/OR WEATHER CONDITIONS ARE NOT AVAILABLE.

MNZ060>063-068>070-251800-
   Twin Cities Metro

CITY           SKY/WX    TMP DP  RH WIND       PRES   REMARKS
TWIN CITIES    LGT RAIN  68  62  81 E13       29.87S
ST PAUL        CLOUDY    68  64  87 VRB3      29.88F
CRYSTAL        CLOUDY    68  64  87 E9        29.86F
BLAINE         CLOUDY    68  66  94 E9        29.89F
EDEN PRAIRIE   CLOUDY    69  63  81 E8        29.85F
SOUTH ST PAUL  LGT RAIN  67  66  94 E6        29.88F
LAKE ELMO      FAIR      66  64  94 E6        29.90F
$$
MNZ001>005-007-008-013>017-022>024-027-028-251800-
   Northwest Minnesota

CITY           SKY/WX    TMP DP  RH WIND       PRES   REMARKS
BEMIDJI        CLOUDY    66  57  72 E12       29.87F
HALLOCK        CLOUDY    72  54  53 E24G32    29.79F
ROSEAU         LGT RAIN  63  57  82 E9        29.91R
WARROAD        LGT RAIN  61  57  88 E10       29.94R
THIEF RVR FALL CLOUDY    63  55  77 E17G25    29.84R
CROOKSTON      DRIZZLE   66  59  77 SE14      29.81R
FOSSTON        CLOUDY    64  55  72 SE10G20   29.83R
DETROIT LAKES  RAIN      63  59  88 SE13      29.82S
MOORHEAD       LGT RAIN  64  61  88 SE9       29.77F
PARK RAPIDS    LGT RAIN  63  57  81 SE13      29.87F
MAHNOMEN       FAIR      66  57  72 SE18G28   29.81S
$$
MNZ006-009>011-018-025>026-251800-
   North Central Minnesota

CITY           SKY/WX    TMP DP  RH WIND       PRES   REMARKS
BAUDETTE       LGT RAIN  58  55  90 SW10      29.96R
FLAG ISLAND    CLOUDY    64  55  72 E8        29.92S
INTL FALLS     CLOUDY    64  54  69 E12       29.96
WASKISH        CLOUDY    64  57  77 E10       29.91F
BIG FORK       CLOUDY    66  55  68 E6        29.94S
LONGVILLE      CLOUDY    66  57  72 E8G16     29.89F
CRANE LAKE     CLOUDY    64  54  68 E5        30.00F
ORR            CLOUDY    64  52  63 E5        29.95S
COOK           CLOUDY    66  54  63 SE7       29.98S
WALKER         FAIR      65  57  75 E8        29.87F
$$
MNZ012-019>021-037-251800-
   Northeast Minnesota

CITY           SKY/WX    TMP DP  RH WIND       PRES   REMARKS
DULUTH         FOG       49  48  97 E18G30    30.01  VSB 1/4
ELY            CLOUDY    64  48  55 SE10      30.01S
HIBBING        CLOUDY    62  53  72 SE15      29.97S
EVELETH        CLOUDY    63  52  67 E9        30.00S
DULUTH HARBOR  CLOUDY    45  45 100 NE21      30.04S FOG
TWO HARBORS    CLOUDY    54  48  82 NE13G22   30.02S HAZE
SILVER BAY     FOG       48  46  93 NE12G17   30.05R VSB 1/4
GRAND MARAIS     N/A     44  43  96 NE12      30.10S
G MARAIS ARPRT CLOUDY    57  48  72 E9        30.09R
$$
MNZ029>031-032-039>041-046>048-054>057-064-251800-
   West Central Minnesota

CITY           SKY/WX    TMP DP  RH WIND       PRES   REMARKS
FERGUS FALLS   CLOUDY    64  55  72 SE18G24   29.72S
WHEATON        LGT RAIN  64  63  94 S9        29.74S
MORRIS         CLOUDY    68  63  83 SE18G25   29.76R
ALEXANDRIA     CLOUDY    63  59  87 E17       29.81F
ELBOW LAKE     CLOUDY    64  58  81 SE15G26   29.76S
WADENA         LGT RAIN  61  57  88 E10G23    29.83F
GLENWOOD       CLOUDY    64  63  94 E18       29.81F
APPLETON       CLOUDY    73  61  64 S17G28    29.76R
BENSON         PTSUNNY   72  61  68 S15G24    29.78S
ORTONVILLE     CLOUDY    72  59  64 S16G24    29.74S
MADISON        PTSUNNY   72  61  68 S17G25    29.76S
WILLMAR        FAIR      66  66 100 SE10      29.82R
$$
MNZ033>034-036-042>043-049>051-058-059-251800-
   Central Minnesota

CITY           SKY/WX    TMP DP  RH WIND       PRES   REMARKS
ST CLOUD       LGT RAIN  63  62  97 E12       29.86F
SAUK CENTRE    CLOUDY    62  60  93 E14       29.82F
PAYNESVILLE    CLOUDY    64  63  96 E9        29.82F
AITKIN         CLOUDY    61  52  72 E8        29.91F
PINE RIVER     CLOUDY    61  55  82 SE13      29.95R
BRAINERD       LGT RAIN  58  56  93 SE8       29.94R
STAPLES        LGT RAIN  61  59  94 E7        29.87F
LONG PRAIRIE   LGT RAIN  61  59  94 NE13      29.84F
LITTLE FALLS   LGT RAIN  61  59  94 E9        29.87F
LITCHFIELD     CLOUDY    66  66 100 E12       29.85R
BUFFALO        CLOUDY    65  62  90 NE7G20    29.87S
MAPLE LAKE     CLOUDY    65  64  96 E10G18    29.87R
HUTCHINSON     CLOUDY    67  65  93 E7        29.86R
$$
MNZ037-044-045-052-053-251800-
   East Central Minnesota

CITY           SKY/WX    TMP DP  RH WIND       PRES   REMARKS
PRINCETON      LGT RAIN  64  63  94 N12       29.89F
MORA           TSTM      59  54  82 SW5       29.99R VSB 1
CAMBRIDGE      LGT RAIN  66  57  72 CALM      29.91F
RUSH CITY      TSTM      64  61  88 CALM      29.94R
MOOSE LAKE     CLOUDY    52  48  87 E9G16     29.96F
HINCKLEY       FAIR      64  59  82 NE6       29.93F
CLOQUET        CLOUDY    52  48  87 E13G20    29.99F FOG
MCGREGOR       CLOUDY    57  52  82 E14       29.95F
$$
MNZ071>073-080-081-089-090-097-098-251800-
   Southwest Minnesota

CITY           SKY/WX    TMP DP  RH WIND       PRES   REMARKS
MONTEVIDEO     MOSUNNY   73  63  68 S16G22    29.79S
GRANITE FALLS  SUNNY     74  65  72 SE17G24   29.81S
CANBY          PTSUNNY   75  60  58 SW14G24   29.79R
MARSHALL       MOSUNNY   75  62  64 S21       29.79
REDWOOD FALLS  CLOUDY    72  64  76 SE21      29.80S
OLIVIA         CLOUDY    70  61  73 SE15      29.81R
PIPESTONE      CLOUDY    72  61  68 SW17      29.83R
WINDOM         PTSUNNY   73  63  68 SE15      29.83R
WORTHINGTON    CLOUDY    72  64  76 S18       29.84
JACKSON        CLOUDY    73  61  64 S10       29.84R
TRACY          MOSUNNY   75  62  64 S15G23    29.82R
SLAYTON        CLOUDY    73  60  65 S16G26    29.84R
$$
MNZ065>067-074>077-082>085-091>093-251800-
   South Central Minnesota

CITY           SKY/WX    TMP DP  RH WIND       PRES   REMARKS
MANKATO        CLOUDY    70  63  78 SE13      29.85S
NEW ULM        CLOUDY    68  66  94 E8        29.83F
ST JAMES       CLOUDY    68  59  73 SE9       29.84S
FAIRMONT       CLOUDY    72  45  37 SE13      29.83R
GLENCOE        CLOUDY    66  66 100 E9        29.84R
FARIBAULT      CLOUDY    70  66  88 E12       29.86F
OWATONNA       LGT RAIN  70  66  88 E6        29.87S
WASECA         CLOUDY    68  64  88 SE8       29.88S
ALBERT LEA     CLOUDY    70  66  88 E3        29.85F FOG
$$
MNZ078>079-086>088-094>096-251800-
   Southeast Minnesota

CITY           SKY/WX    TMP DP  RH WIND       PRES   REMARKS
ROCHESTER      LGT RAIN  70  66  87 E12       29.89S
RED WING       PTSUNNY   70  66  88 E3        29.87F
STANTON        CLOUDY    71  65  82 E8        29.86S
DODGE CENTER   PTSUNNY   70  68  94 E13       29.89R FOG
WINONA         LGT RAIN  70  63  78 S3        29.92R
AUSTIN         CLOUDY    70  64  83 E8        29.87S
PRESTON        LGT RAIN  67  64  89 E9        29.89F
$$
ABBREVIATIONS USED IN REMARKS
   TC - TEMPERATURES IN CELSIUS
  WCI - WIND CHILL INDEX
   HX - HEAT INDEX
  VSB - VISIBILITY
$$




USA.gov is the U.S. government's official web portal to all federal, state and local government web resources and services.